sat.trackr.live / text

‹ back to catalog

STARLINK-33550

NORAD 62285 · 2024-237U

PAYLOAD ACTIVE UNKNOWN

§ Identity

Operator
Country
US
Launch date
2024-12-08
Launch site
AFETR
Launch vehicle
Mass (kg)
RCS (m²)

Purposes: comms

External: N2YO · Heavens-Above · Gunter

§ Orbital elements

Epoch: 2026-09-21T04:51:12.181248Z

Period
94.27 min
Inclination
43.0003°
Eccentricity
0.0001702
Mean motion
15.27606138 rev/d
Perigee alt
481.8 km
Apogee alt
484.1 km
Semi-major
6,861.1 km
B*
5.0089e-4
RAAN
192.1569°
Arg perigee
271.4827°
Mean anomaly
88.5829°
Rev number
10,109

§ Raw data

STARLINK-335501 62285U 24237U   26264.20222432  .00013558  00000+0  50089-3 0  99942 62285  43.0003 192.1569 0001702 271.4827  88.5829 15.27606138101099

JSON: /api/v1/satellites/62285 · /tle

For live sub-satellite position, see the globe view (requires WebGL).

§ Visibility from observer

Set your observer location to see the next 7 days of passes ≥ 10°. The values pass through the URL so the page stays shareable.

No JS? Fill the form by hand. The geolocation button needs JavaScript.